| time (UTC) | temp F | wind direction | speed knots | gust knots | rain 1hr in | rain 24hr in | rain mn in | humidity % | barometer mb |
| 20260502170406 | 55 | 220 | 4.3 | 7.0 | 0.00 | 0.00 | 0.00 | 37 | 1020.7 |
| 20260502163849 | 56 | 2 | 4.3 | 7.0 | 0.00 | 0.00 | 0.00 | 38 | 1020.5 |
| 20260502163346 | 54 | 264 | 1.7 | 4.3 | 0.00 | 0.00 | 0.00 | 39 | 1020.6 |
| 20260502162844 | 54 | 335 | 2.6 | 5.2 | 0.00 | 0.00 | 0.00 | 39 | 1020.8 |
| 20260502162340 | 55 | 315 | 7.0 | 7.8 | 0.00 | 0.00 | 0.00 | 39 | 1020.9 |
| 20260502161837 | 54 | 289 | 1.7 | 6.1 | 0.00 | 0.00 | 0.00 | 41 | 1020.7 |
| 20260502161333 | 54 | 306 | 5.2 | 7.0 | 0.00 | 0.00 | 0.00 | 39 | 1020.8 |
| 20260502160832 | 54 | 343 | 0.0 | 1.7 | 0.00 | 0.00 | 0.00 | 40 | 1020.8 |
| 20260502160330 | 54 | 59 | 3.5 | 5.2 | 0.00 | 0.00 | 0.00 | 39 | 1020.9 |
| 20260502152259 | 53 | 318 | 1.7 | 7.0 | 0.00 | 0.00 | 0.00 | 40 | 1020.8 |
| 20260502151756 | 53 | 327 | 4.3 | 6.1 | 0.00 | 0.00 | 0.00 | 44 | 1020.8 |
| 20260502151253 | 53 | 308 | 4.3 | 5.2 | 0.00 | 0.00 | 0.00 | 40 | 1020.7 |
| 20260502150752 | 52 | 26 | 1.7 | 5.2 | 0.00 | 0.00 | 0.00 | 44 | 1020.8 |
| 20260502150248 | 52 | 336 | 3.5 | 4.3 | 0.00 | 0.00 | 0.00 | 45 | 1021.1 |
| 20260502130636 | 41 | 343 | 0.0 | 1.7 | 0.00 | 0.00 | 0.00 | 79 | 1020.6 |
| 20260502130134 | 41 | 307 | 2.6 | 2.6 | 0.00 | 0.00 | 0.00 | 80 | 1020.8 |
| 20260502123620 | 39 | 322 | 1.7 | 1.7 | 0.00 | 0.00 | 0.00 | 84 | 1020.7 |
| 20260502123116 | 38 | 310 | 0.9 | 1.7 | 0.00 | 0.00 | 0.00 | 85 | 1020.9 |
| 20260502122613 | 38 | 308 | 0.9 | 1.7 | 0.00 | 0.00 | 0.00 | 87 | 1020.8 |
| 20260502122109 | 37 | 302 | 0.0 | 0.9 | 0.00 | 0.00 | 0.00 | 88 | 1020.7 |
| 20260502121608 | 37 | 299 | 0.9 | 1.7 | 0.00 | 0.00 | 0.00 | 88 | 1020.7 |
| 20260502121105 | 37 | 305 | 0.9 | 1.7 | 0.00 | 0.00 | 0.00 | 89 | 1020.5 |
| 20260502120600 | 36 | 303 | 0.0 | 0.9 | 0.00 | 0.00 | 0.00 | 88 | 1020.4 |
| 20260502115556 | 36 | 304 | 0.9 | 1.7 | 0.00 | 0.00 | 0.00 | 88 | 1020.3 |
| 20260502115051 | 36 | 304 | 0.9 | 1.7 | 0.00 | 0.00 | 0.00 | 88 | 1020.2 |
| 20260502114548 | 36 | 308 | 1.7 | 1.7 | 0.00 | 0.00 | 0.00 | 88 | 1020.1 |
| 20260502114045 | 36 | 307 | 0.9 | 0.9 | 0.00 | 0.00 | 0.00 | 89 | 1020.0 |
| 20260502113543 | 35 | 306 | 0.9 | 1.7 | 0.00 | 0.00 | 0.00 | 89 | 1020.2 |
| 20260502113041 | 35 | 306 | 0.9 | 1.7 | 0.00 | 0.00 | 0.00 | 89 | 1020.1 |
| 20260502112538 | 35 | 307 | 1.7 | 1.7 | 0.00 | 0.00 | 0.00 | 89 | 1019.8 |
| 20260502112036 | 36 | 305 | 0.9 | 1.7 | 0.00 | 0.00 | 0.00 | 88 | 1020.0 |
| 20260502111533 | 35 | 306 | 0.9 | 1.7 | 0.00 | 0.00 | 0.00 | 88 | 1019.7 |
| 20260502111030 | 35 | 302 | 1.7 | 2.6 | 0.00 | 0.00 | 0.00 | 88 | 1019.9 |
| 20260502110527 | 36 | 305 | 1.7 | 2.6 | 0.00 | 0.00 | 0.00 | 88 | 1019.9 |
| 20260502110025 | 36 | 305 | 0.9 | 1.7 | 0.00 | 0.00 | 0.00 | 87 | 1019.8 |
| 20260502105522 | 36 | 305 | 0.9 | 2.6 | 0.00 | 0.00 | 0.00 | 87 | 1019.9 |
| 20260502105020 | 36 | 305 | 0.9 | 0.9 | 0.00 | 0.00 | 0.00 | 87 | 1019.8 |
| 20260502104517 | 36 | 305 | 0.9 | 0.9 | 0.00 | 0.00 | 0.00 | 87 | 1019.7 |
| 20260502104014 | 36 | 305 | 0.9 | 1.7 | 0.00 | 0.00 | 0.00 | 87 | 1019.6 |
| 20260502103506 | 37 | 305 | 0.9 | 0.9 | 0.00 | 0.00 | 0.00 | 87 | 1019.6 |
| 20260502103004 | 37 | 308 | 1.7 | 1.7 | 0.00 | 0.00 | 0.00 | 86 | 1019.7 |
| 20260502102500 | 37 | 302 | 0.9 | 1.7 | 0.00 | 0.00 | 0.00 | 87 | 1019.6 |
| 20260502101956 | 37 | 302 | 0.9 | 1.7 | 0.00 | 0.00 | 0.00 | 87 | 1019.5 |
| 20260502101455 | 37 | 302 | 0.9 | 0.9 | 0.00 | 0.00 | 0.00 | 86 | 1019.5 |
| 20260502100953 | 37 | 302 | 0.9 | 1.7 | 0.00 | 0.00 | 0.00 | 86 | 1019.7 |
| 20260502100451 | 37 | 302 | 0.9 | 1.7 | 0.00 | 0.00 | 0.00 | 86 | 1019.7 |
| 20260502091426 | 38 | 308 | 0.9 | 0.9 | 0.00 | 0.00 | 0.00 | 84 | 1019.5 |
| 20260502090923 | 38 | 307 | 0.0 | 0.9 | 0.00 | 0.00 | 0.00 | 84 | 1019.5 |
| 20260502090420 | 38 | 307 | 0.0 | 0.9 | 0.00 | 0.00 | 0.00 | 84 | 1019.4 |
| 20260502071303 | 42 | 309 | 0.9 | 0.9 | 0.00 | 0.00 | 0.00 | 75 | 1019.3 |
| 20260502070801 | 42 | 305 | 0.9 | 0.9 | 0.00 | 0.00 | 0.00 | 75 | 1019.4 |
| 20260502070258 | 42 | 342 | 0.9 | 0.9 | 0.00 | 0.00 | 0.00 | 75 | 1019.5 |
| 20260502065757 | 41 | 343 | 0.0 | 0.0 | 0.00 | 0.00 | 0.00 | 76 | 1019.7 |
| 20260502065255 | 42 | 343 | 0.0 | 0.9 | 0.00 | 0.00 | 0.00 | 76 | 1019.3 |
| 20260502064752 | 42 | 343 | 0.0 | 0.9 | 0.00 | 0.00 | 0.00 | 76 | 1019.4 |
| 20260502064250 | 42 | 343 | 0.0 | 0.9 | 0.00 | 0.00 | 0.00 | 76 | 1019.6 |
| 20260502063747 | 42 | 343 | 0.0 | 0.9 | 0.00 | 0.00 | 0.00 | 75 | 1019.5 |
| 20260502063245 | 43 | 343 | 0.9 | 0.9 | 0.00 | 0.00 | 0.00 | 73 | 1019.5 |
| 20260502062742 | 43 | 344 | 0.9 | 0.9 | 0.00 | 0.00 | 0.00 | 72 | 1019.6 |
| 20260502062240 | 43 | 344 | 0.9 | 0.9 | 0.00 | 0.00 | 0.00 | 70 | 1019.7 |
| 20260502061738 | 44 | 345 | 0.9 | 0.9 | 0.00 | 0.00 | 0.00 | 67 | 1019.6 |
| 20260502061235 | 45 | 346 | 0.9 | 2.6 | 0.00 | 0.00 | 0.00 | 65 | 1019.7 |
| 20260502060730 | 45 | 346 | 2.6 | 2.6 | 0.00 | 0.00 | 0.00 | 66 | 1019.5 |
| 20260502060226 | 45 | 344 | 0.0 | 1.7 | 0.00 | 0.00 | 0.00 | 66 | 1019.6 |
| 20260502055724 | 45 | 343 | 0.9 | 1.7 | 0.00 | 0.00 | 0.00 | 66 | 1019.4 |
| 20260502055221 | 45 | 342 | 0.9 | 1.7 | 0.00 | 0.00 | 0.00 | 65 | 1019.5 |
| 20260502054720 | 45 | 342 | 0.9 | 1.7 | 0.00 | 0.00 | 0.00 | 66 | 1019.3 |
| 20260502054212 | 45 | 341 | 0.9 | 1.7 | 0.00 | 0.00 | 0.00 | 65 | 1019.4 |
| 20260502053710 | 46 | 340 | 1.7 | 1.7 | 0.00 | 0.00 | 0.00 | 64 | 1019.3 |
| 20260502053207 | 46 | 342 | 0.9 | 1.7 | 0.00 | 0.00 | 0.00 | 63 | 1019.3 |
| 20260502052705 | 46 | 335 | 0.9 | 2.6 | 0.00 | 0.00 | 0.00 | 64 | 1019.3 |
| 20260502052203 | 46 | 335 | 0.0 | 1.7 | 0.00 | 0.00 | 0.00 | 63 | 1019.1 |
| 20260502051700 | 46 | 335 | 0.9 | 0.9 | 0.00 | 0.00 | 0.00 | 63 | 1019.1 |
| 20260502051158 | 46 | 335 | 1.7 | 1.7 | 0.00 | 0.00 | 0.00 | 63 | 1019.3 |
| 20260502050654 | 46 | 334 | 0.0 | 0.9 | 0.00 | 0.00 | 0.00 | 64 | 1019.3 |
| 20260502050151 | 46 | 334 | 0.9 | 0.9 | 0.00 | 0.00 | 0.00 | 66 | 1019.2 |
| 20260502045647 | 46 | 335 | 0.9 | 1.7 | 0.00 | 0.00 | 0.00 | 65 | 1019.2 |
| 20260502045145 | 46 | 333 | 0.0 | 0.0 | 0.00 | 0.00 | 0.00 | 65 | 1019.2 |
| 20260502044641 | 47 | 333 | 0.0 | 0.0 | 0.00 | 0.00 | 0.00 | 64 | 1019.3 |
| 20260502044137 | 47 | 333 | 0.0 | 0.9 | 0.00 | 0.00 | 0.00 | 62 | 1019.3 |
| 20260502043635 | 47 | 333 | 0.9 | 0.9 | 0.00 | 0.00 | 0.00 | 61 | 1019.2 |
| 20260502043133 | 48 | 333 | 0.9 | 0.9 | 0.00 | 0.00 | 0.00 | 60 | 1019.2 |
| 20260502042626 | 48 | 332 | 0.9 | 0.9 | 0.00 | 0.00 | 0.00 | 59 | 1019.1 |
| 20260502042123 | 48 | 331 | 0.0 | 1.7 | 0.00 | 0.00 | 0.00 | 59 | 1019.1 |
| 20260502041621 | 48 | 331 | 0.9 | 1.7 | 0.00 | 0.00 | 0.00 | 59 | 1019.1 |
| 20260502041118 | 48 | 331 | 0.0 | 0.9 | 0.00 | 0.00 | 0.00 | 60 | 1019.2 |
| 20260502040615 | 48 | 331 | 0.9 | 0.9 | 0.00 | 0.00 | 0.00 | 60 | 1019.1 |
| 20260502040112 | 48 | 331 | 0.9 | 0.9 | 0.00 | 0.00 | 0.00 | 61 | 1019.1 |
| 20260502035608 | 47 | 331 | 0.0 | 0.0 | 0.00 | 0.00 | 0.00 | 62 | 1019.2 |
| 20260502035105 | 48 | 331 | 0.0 | 0.0 | 0.00 | 0.00 | 0.00 | 62 | 1019.0 |
| 20260502034603 | 48 | 331 | 0.0 | 0.0 | 0.00 | 0.00 | 0.00 | 62 | 1018.9 |
| 20260502034101 | 49 | 331 | 0.0 | 0.9 | 0.00 | 0.00 | 0.00 | 60 | 1019.1 |
| 20260502033559 | 49 | 334 | 1.7 | 1.7 | 0.00 | 0.00 | 0.00 | 59 | 1019.2 |
| 20260502033056 | 49 | 343 | 1.7 | 2.6 | 0.00 | 0.00 | 0.00 | 59 | 1019.1 |
| 20260502032552 | 50 | 342 | 0.9 | 1.7 | 0.00 | 0.00 | 0.00 | 59 | 1018.9 |
| 20260502032049 | 50 | 332 | 0.9 | 1.7 | 0.00 | 0.00 | 0.00 | 59 | 1018.9 |
| 20260502031547 | 49 | 330 | 1.7 | 1.7 | 0.00 | 0.00 | 0.00 | 59 | 1018.8 |
| 20260502031044 | 49 | 329 | 0.0 | 0.9 | 0.00 | 0.00 | 0.00 | 59 | 1018.9 |
| 20260502030543 | 50 | 329 | 0.0 | 0.9 | 0.00 | 0.00 | 0.00 | 60 | 1018.9 |
| 20260502030040 | 50 | 329 | 0.0 | 0.9 | 0.00 | 0.00 | 0.00 | 58 | 1018.7 |
| 20260502025538 | 50 | 329 | 0.9 | 0.9 | 0.00 | 0.00 | 0.00 | 57 | 1018.7 |
| 20260502025036 | 50 | 329 | 0.9 | 0.9 | 0.00 | 0.00 | 0.00 | 57 | 1018.7 |
| 20260502024532 | 50 | 329 | 0.0 | 0.9 | 0.00 | 0.00 | 0.00 | 57 | 1018.7 |
| 20260502024031 | 50 | 331 | 1.7 | 1.7 | 0.00 | 0.00 | 0.00 | 56 | 1018.7 |
| 20260502023528 | 51 | 343 | 1.7 | 1.7 | 0.00 | 0.00 | 0.00 | 56 | 1018.7 |
| 20260502023026 | 51 | 343 | 1.7 | 2.6 | 0.00 | 0.00 | 0.00 | 55 | 1018.5 |
| 20260502022522 | 51 | 349 | 0.9 | 1.7 | 0.00 | 0.00 | 0.00 | 54 | 1018.5 |
| 20260502022020 | 51 | 337 | 0.9 | 0.9 | 0.00 | 0.00 | 0.00 | 55 | 1018.4 |
| 20260502021517 | 51 | 335 | 1.7 | 2.6 | 0.00 | 0.00 | 0.00 | 54 | 1018.5 |
| 20260502021014 | 51 | 1 | 1.7 | 4.3 | 0.00 | 0.00 | 0.00 | 54 | 1018.2 |
| 20260502020512 | 51 | 9 | 3.5 | 5.2 | 0.00 | 0.00 | 0.00 | 52 | 1018.1 |
| 20260502020009 | 51 | 356 | 1.7 | 4.3 | 0.00 | 0.00 | 0.00 | 53 | 1017.9 |
| 20260502015507 | 51 | 6 | 1.7 | 4.3 | 0.00 | 0.00 | 0.00 | 53 | 1017.8 |
| 20260502015003 | 51 | 7 | 3.5 | 5.2 | 0.00 | 0.00 | 0.00 | 53 | 1017.9 |
| 20260502014459 | 51 | 355 | 4.3 | 5.2 | 0.00 | 0.00 | 0.00 | 52 | 1017.9 |
| 20260502013956 | 51 | 344 | 2.6 | 4.3 | 0.00 | 0.00 | 0.00 | 54 | 1017.8 |
| 20260502013452 | 52 | 356 | 1.7 | 6.1 | 0.00 | 0.00 | 0.00 | 54 | 1017.7 |
| 20260502012948 | 51 | 357 | 2.6 | 4.3 | 0.00 | 0.00 | 0.00 | 53 | 1017.9 |
| 20260502012446 | 52 | 337 | 2.6 | 4.3 | 0.00 | 0.00 | 0.00 | 52 | 1017.6 |
| 20260502011944 | 52 | 342 | 2.6 | 4.3 | 0.00 | 0.00 | 0.00 | 52 | 1017.5 |
| 20260502011439 | 52 | 353 | 2.6 | 5.2 | 0.00 | 0.00 | 0.00 | 52 | 1017.6 |
| 20260502010937 | 52 | 349 | 2.6 | 5.2 | 0.00 | 0.00 | 0.00 | 52 | 1017.3 |
| 20260502010433 | 52 | 19 | 3.5 | 4.3 | 0.00 | 0.00 | 0.00 | 51 | 1017.3 |
| 20260502005929 | 52 | 351 | 2.6 | 5.2 | 0.00 | 0.00 | 0.00 | 51 | 1017.3 |
| 20260502005427 | 53 | 0 | 5.2 | 6.1 | 0.00 | 0.00 | 0.00 | 50 | 1017.2 |
| 20260502004926 | 53 | 347 | 2.6 | 6.1 | 0.00 | 0.00 | 0.00 | 50 | 1017.1 |
| 20260502004421 | 53 | 1 | 2.6 | 6.1 | 0.00 | 0.00 | 0.00 | 50 | 1017.2 |
| 20260502003918 | 53 | 15 | 3.5 | 6.1 | 0.00 | 0.00 | 0.00 | 49 | 1017.1 |
| 20260502003416 | 54 | 23 | 4.3 | 7.0 | 0.00 | 0.00 | 0.00 | 48 | 1017.1 |
| 20260502002912 | 54 | 3 | 4.3 | 5.2 | 0.00 | 0.00 | 0.00 | 49 | 1017.0 |
| 20260502002409 | 54 | 12 | 4.3 | 6.1 | 0.00 | 0.00 | 0.00 | 47 | 1016.9 |
| 20260502001906 | 54 | 29 | 1.7 | 4.3 | 0.00 | 0.00 | 0.00 | 48 | 1016.9 |
| 20260502001404 | 54 | 334 | 5.2 | 7.0 | 0.00 | 0.00 | 0.00 | 47 | 1016.9 |
| 20260502000901 | 54 | 8 | 2.6 | 7.0 | 0.00 | 0.00 | 0.00 | 47 | 1016.8 |
| 20260502000402 | 54 | 13 | 1.7 | 6.1 | 0.00 | 0.00 | 0.00 | 48 | 1016.7 |
| 20260501235855 | 54 | 22 | 4.3 | 9.6 | 0.00 | 0.00 | 0.00 | 46 | 1016.8 |
| 20260501235351 | 54 | 358 | 3.5 | 7.0 | 0.00 | 0.00 | 0.00 | 46 | 1016.7 |
| 20260501234846 | 55 | 13 | 5.2 | 7.8 | 0.00 | 0.00 | 0.00 | 47 | 1016.7 |
| 20260501234343 | 55 | 1 | 4.3 | 7.0 | 0.00 | 0.00 | 0.00 | 46 | 1016.8 |
| 20260501233842 | 55 | 10 | 4.3 | 7.8 | 0.00 | 0.00 | 0.00 | 46 | 1016.6 |
| 20260501233339 | 55 | 356 | 3.5 | 8.7 | 0.00 | 0.00 | 0.00 | 46 | 1016.7 |
| 20260501232834 | 55 | 10 | 2.6 | 5.2 | 0.00 | 0.00 | 0.00 | 46 | 1016.6 |
| 20260501232332 | 55 | 353 | 4.3 | 9.6 | 0.00 | 0.00 | 0.00 | 44 | 1016.7 |
| 20260501231829 | 55 | 7 | 7.0 | 8.7 | 0.00 | 0.00 | 0.00 | 44 | 1016.8 |
| 20260501231327 | 55 | 352 | 5.2 | 7.8 | 0.00 | 0.00 | 0.00 | 44 | 1016.7 |
| 20260501230825 | 55 | 35 | 3.5 | 9.6 | 0.00 | 0.00 | 0.00 | 45 | 1016.7 |
| 20260501230324 | 56 | 1 | 7.0 | 8.7 | 0.00 | 0.00 | 0.00 | 46 | 1016.7 |
| 20260501225821 | 56 | 0 | 4.3 | 6.1 | 0.00 | 0.00 | 0.00 | 45 | 1016.6 |
| 20260501225319 | 56 | 316 | 4.3 | 13.0 | 0.00 | 0.00 | 0.00 | 43 | 1016.8 |
| 20260501224815 | 56 | 300 | 4.3 | 8.7 | 0.00 | 0.00 | 0.00 | 43 | 1016.8 |
| 20260501224312 | 55 | 13 | 4.3 | 7.8 | 0.00 | 0.00 | 0.00 | 44 | 1016.7 |
| 20260501223808 | 55 | 332 | 3.5 | 7.8 | 0.00 | 0.00 | 0.00 | 44 | 1016.7 |
| 20260501223304 | 55 | 346 | 5.2 | 9.6 | 0.00 | 0.00 | 0.00 | 44 | 1016.8 |
| 20260501222800 | 56 | 343 | 5.2 | 9.6 | 0.00 | 0.00 | 0.00 | 43 | 1016.8 |
| 20260501222258 | 56 | 61 | 6.1 | 8.7 | 0.00 | 0.00 | 0.00 | 43 | 1016.8 |
| 20260501221755 | 56 | 6 | 6.1 | 12.2 | 0.00 | 0.00 | 0.00 | 44 | 1016.5 |
| 20260501221252 | 56 | 3 | 4.3 | 11.3 | 0.00 | 0.00 | 0.00 | 43 | 1016.7 |
| 20260501220750 | 57 | 6 | 6.1 | 8.7 | 0.00 | 0.00 | 0.00 | 43 | 1016.6 |
| 20260501220247 | 58 | 309 | 1.7 | 6.1 | 0.00 | 0.00 | 0.00 | 42 | 1016.7 |
| 20260501215744 | 56 | 332 | 2.6 | 5.2 | 0.00 | 0.00 | 0.00 | 44 | 1016.8 |
| 20260501215239 | 56 | 358 | 6.1 | 8.7 | 0.00 | 0.00 | 0.00 | 45 | 1016.8 |
| 20260501214734 | 56 | 34 | 5.2 | 11.3 | 0.00 | 0.00 | 0.00 | 44 | 1016.6 |
| 20260501214231 | 56 | 27 | 3.5 | 6.1 | 0.00 | 0.00 | 0.00 | 47 | 1016.7 |
| 20260501213727 | 57 | 30 | 4.3 | 7.0 | 0.00 | 0.00 | 0.00 | 44 | 1016.5 |
| 20260501213223 | 58 | 281 | 4.3 | 7.8 | 0.00 | 0.00 | 0.00 | 42 | 1016.7 |
| 20260501212719 | 58 | 49 | 6.1 | 9.6 | 0.00 | 0.00 | 0.00 | 44 | 1016.6 |
| 20260501212216 | 56 | 335 | 6.1 | 7.8 | 0.00 | 0.00 | 0.00 | 47 | 1016.7 |
| 20260501211713 | 56 | 358 | 3.5 | 6.1 | 0.00 | 0.00 | 0.00 | 46 | 1016.9 |
| 20260501211210 | 57 | 333 | 6.1 | 7.0 | 0.00 | 0.00 | 0.00 | 45 | 1016.9 |
| 20260501210707 | 55 | 31 | 6.1 | 7.8 | 0.00 | 0.00 | 0.00 | 46 | 1016.9 |
| 20260501210204 | 56 | 16 | 4.3 | 11.3 | 0.00 | 0.00 | 0.00 | 47 | 1016.8 |
| 20260501205700 | 56 | 341 | 5.2 | 8.7 | 0.00 | 0.00 | 0.00 | 49 | 1017.0 |
| 20260501205157 | 56 | 352 | 6.1 | 9.6 | 0.00 | 0.00 | 0.00 | 46 | 1016.8 |
| 20260501204654 | 55 | 359 | 7.0 | 11.3 | 0.00 | 0.00 | 0.00 | 48 | 1017.0 |
| 20260501204150 | 55 | 320 | 6.1 | 8.7 | 0.00 | 0.00 | 0.00 | 48 | 1016.9 |
| 20260501203647 | 55 | 1 | 7.0 | 8.7 | 0.00 | 0.00 | 0.00 | 47 | 1017.1 |
| 20260501203145 | 56 | 22 | 7.0 | 9.6 | 0.00 | 0.00 | 0.00 | 48 | 1017.1 |
| 20260501202641 | 56 | 346 | 10.4 | 15.6 | 0.00 | 0.00 | 0.00 | 46 | 1017.1 |
| 20260501202138 | 56 | 16 | 2.6 | 7.8 | 0.00 | 0.00 | 0.00 | 47 | 1017.1 |
| 20260501201635 | 57 | 30 | 8.7 | 12.2 | 0.00 | 0.00 | 0.00 | 48 | 1017.1 |
| 20260501201131 | 57 | 30 | 3.5 | 9.6 | 0.00 | 0.00 | 0.00 | 48 | 1017.0 |
| 20260501200628 | 57 | 2 | 5.2 | 7.8 | 0.00 | 0.00 | 0.00 | 45 | 1016.9 |
| 20260501200126 | 57 | 12 | 6.1 | 8.7 | 0.00 | 0.00 | 0.00 | 45 | 1017.0 |
| 20260501195623 | 57 | 19 | 6.1 | 8.7 | 0.00 | 0.00 | 0.00 | 48 | 1017.0 |
| 20260501195119 | 56 | 325 | 3.5 | 4.3 | 0.00 | 0.00 | 0.00 | 51 | 1017.0 |
| 20260501194614 | 56 | 20 | 4.3 | 8.7 | 0.00 | 0.00 | 0.00 | 51 | 1017.1 |
| 20260501194110 | 55 | 345 | 4.3 | 7.8 | 0.00 | 0.00 | 0.00 | 51 | 1017.1 |
| 20260501193608 | 54 | 31 | 4.3 | 7.0 | 0.00 | 0.00 | 0.00 | 51 | 1017.2 |
| 20260501193107 | 54 | 356 | 7.0 | 8.7 | 0.00 | 0.00 | 0.00 | 56 | 1017.0 |
| 20260501192603 | 55 | 8 | 9.6 | 9.6 | 0.00 | 0.00 | 0.00 | 56 | 1017.1 |
| 20260501192101 | 56 | 326 | 3.5 | 9.6 | 0.00 | 0.00 | 0.00 | 53 | 1017.0 |
| 20260501191557 | 55 | 303 | 6.1 | 11.3 | 0.00 | 0.00 | 0.00 | 53 | 1017.1 |
| 20260501191055 | 56 | 295 | 1.7 | 8.7 | 0.00 | 0.00 | 0.00 | 52 | 1016.9 |
| 20260501190550 | 56 | 340 | 2.6 | 7.8 | 0.00 | 0.00 | 0.00 | 56 | 1016.9 |
| 20260501190046 | 56 | 315 | 4.3 | 7.8 | 0.00 | 0.00 | 0.00 | 58 | 1017.1 |
| 20260501185542 | 55 | 297 | 1.7 | 6.1 | 0.00 | 0.00 | 0.00 | 55 | 1017.1 |
| 20260501185038 | 54 | 315 | 1.7 | 1.7 | 0.00 | 0.00 | 0.00 | 54 | 1016.8 |
| 20260501184535 | 54 | 281 | 1.7 | 2.6 | 0.00 | 0.00 | 0.00 | 52 | 1016.8 |
| 20260501184034 | 53 | 296 | 1.7 | 8.7 | 0.00 | 0.00 | 0.00 | 51 | 1017.0 |
| 20260501183532 | 54 | 330 | 4.3 | 8.7 | 0.00 | 0.00 | 0.00 | 52 | 1016.8 |
| 20260501183028 | 54 | 6 | 10.4 | 14.8 | 0.00 | 0.00 | 0.00 | 56 | 1016.7 |
| 20260501182525 | 55 | 14 | 10.4 | 17.4 | 0.00 | 0.00 | 0.00 | 55 | 1016.7 |
| 20260501182022 | 56 | 7 | 6.1 | 12.2 | 0.00 | 0.00 | 0.00 | 54 | 1016.6 |
| 20260501181519 | 56 | 21 | 5.2 | 11.3 | 0.00 | 0.00 | 0.00 | 56 | 1016.6 |
| 20260501181016 | 54 | 317 | 5.2 | 11.3 | 0.00 | 0.00 | 0.00 | 58 | 1016.3 |
| 20260501180514 | 55 | 322 | 4.3 | 11.3 | 0.00 | 0.00 | 0.00 | 56 | 1016.6 |
| 20260501180009 | 57 | 302 | 2.6 | 5.2 | 0.00 | 0.00 | 0.00 | 48 | 1016.4 |